Tracking 30102 objects as of 12-Dec-2024
HD Live streaming from Space Station
objects crossing your sky now

EKRAN 7

Track EKRAN 7 now!
EKRAN 7 is classified as:


NORAD ID: 12564
Int'l Code: 1981-061A
Perigee: 35,784.7 km
Apogee: 35,814.9 km
Inclination: 7.8 °
Period: 1,436.4 minutes
Semi major axis: 42170 km
RCS: 3.9811 m2 (large)
Launch date: June 26, 1981
Source: Commonwealth of Independent States (former USSR) (CIS)
Launch site: TYURATAM MISSILE AND SPACE COMPLEX (TTMTR)
Your satellite tracking list
Your tracking list is empty




NASA's NSSDC Master Catalog

Two Line Element Set (TLE):
1 12564U 81061A   24347.53292528  .00000119  00000-0  00000+0 0  9990
2 12564   7.8323 298.0002 0003586  36.5175 350.3942  1.00250199123978
Source of the keplerian elements: AFSPC